Flag for Tajikistan Weather past 2 weeks in Dushanbe, Tajikistan

Now
46 °F

Light rain. Mostly cloudy.


Feels Like: 42 °F
Forecast: 48 / 56 °F
Wind: 8 mph from West

Location: Dushanbe Airport

Current Time: Mar 29, 2015 at 4:01:02 AM

Latest Report: Mar 29, 2015 at 3:30 AM


Visibility: 4 mi

Pressure: 30.07 "Hg

Humidity: 93%

Dew point: 45 °F

Location of DushanbeLocation

Historic Weather in Dushanbe — Graph

°F

Dushanbe temperature yesterday

Maximum temperature yesterday: 52 °F (at 3:00 PM)
Minimum temperature yesterday: 46 °F (at 11:00 PM)
Average temperature yesterday: 49 °F

Past Weeks' High & Low Weather Summary

 TemperatureHumidityPressure
High81 °F (Mar 23, 1:30 PM)100% (Mar 14, 7:00 AM)30.45 "Hg (Mar 14, 7:00 AM)
Low37 °F (Mar 25, 5:30 AM)21% (Mar 25, 2:30 PM)29.77 "Hg (Mar 24, 2:30 AM)
Average56 °F65%30.15 "Hg
* Reported Mar 14 3:00 AM — Mar 29 3:00 AM, Dushanbe, Weather by CustomWeather, © 2015

Note: Actual official high and low records may vary slightly from our data, if they occured in-between our weather recording intervals... More about our weather records

Advertising

Dushanbe weather history for previous 24 hours

 ConditionsComfort  
Time TempWeatherWind HumidityBarometerVisibility
3:00 AM
Sun, Mar 29
46 °FLight rain. Mostly cloudy.6 mph93%30.07 "HgN/A
2:30 AM46 °FLight rain. Mostly cloudy.6 mph93%30.07 "HgN/A
1:30 AM46 °FLight rain. Overcast.6 mph93%30.09 "HgN/A
1:00 AM46 °FLight rain. Mostly cloudy.6 mph93%30.09 "HgN/A
12:30 AM46 °FLight rain. Mostly cloudy.8 mph93%30.09 "HgN/A
12:00 AM46 °FLight rain. Mostly cloudy.8 mph100%30.09 "Hg5 mi
11:30 PM
Sat, Mar 28
46 °FLight rain. Mostly cloudy.8 mph100%30.09 "Hg5 mi
11:00 PM46 °FLight rain. Fog.8 mph100%30.09 "Hg3 mi
10:30 PM48 °FLight rain. Mostly cloudy.8 mph94%30.09 "Hg4 mi
10:00 PM48 °FMostly cloudy.8 mph94%30.09 "Hg6 mi
9:30 PM48 °FOvercast.10 mph94%30.09 "Hg6 mi
9:00 PM48 °FMostly cloudy.10 mph94%30.09 "Hg5 mi
8:30 PM48 °FMostly cloudy.6 mph94%30.09 "Hg4 mi
8:00 PM48 °FMostly cloudy.6 mph94%30.09 "Hg4 mi
7:30 PM50 °FMostly cloudy.6 mph94%30.09 "Hg5 mi
7:00 PM50 °FMostly cloudy.6 mph94%30.09 "Hg4 mi
6:30 PM52 °FLow clouds.3 mph88%30.09 "Hg5 mi
6:00 PM52 °FLow clouds.3 mph88%30.07 "Hg4 mi
5:30 PM52 °FLow clouds.3 mph88%30.07 "Hg5 mi
5:00 PM52 °FLow clouds.3 mph88%30.07 "Hg5 mi
4:30 PM52 °FLight rain. More clouds than sun.3 mph88%30.07 "Hg4 mi
4:00 PM52 °FLight rain. More clouds than sun.1 mph88%30.07 "Hg4 mi
3:30 PM52 °FLight rain. More clouds than sun.3 mph88%30.09 "Hg5 mi
3:00 PM52 °FLow clouds.1 mph88%30.09 "HgN/A
2:30 PM50 °FMore clouds than sun.1 mph94%30.09 "HgN/A
2:00 PM50 °FMostly cloudy.3 mph94%30.09 "Hg6 mi
1:30 PM50 °FLight rain. Mostly cloudy.3 mph94%30.12 "Hg4 mi
1:00 PM50 °FLight rain. Fog.3 mph94%30.12 "Hg2 mi
12:30 PM50 °FLight rain. Fog.1 mph94%30.12 "Hg3 mi
12:00 PM48 °FLight rain. More clouds than sun.1 mph94%30.15 "Hg4 mi
11:30 AM48 °FLight rain. Fog.1 mph94%30.15 "Hg3 mi
11:00 AM48 °FLight rain. Mostly cloudy.3 mph94%30.15 "Hg4 mi
10:30 AM48 °FLight rain. Mostly cloudy.3 mph94%30.15 "Hg4 mi
10:00 AM48 °FLight rain. Mostly cloudy.3 mph94%30.15 "Hg4 mi
9:30 AM48 °FLight rain. Fog.3 mph100%30.15 "Hg3 mi
9:00 AM48 °FLight rain. Mostly cloudy.6 mph100%30.15 "Hg3 mi
8:30 AM50 °FLight rain. Fog.6 mph94%30.12 "Hg2 mi
8:00 AM50 °FLight rain. Fog.1 mph94%30.12 "Hg2 mi
7:30 AM48 °FLight rain. Fog.1 mph100%30.12 "Hg2 mi
7:00 AM48 °FLight rain. Fog.1 mph100%30.12 "Hg3 mi
6:30 AM48 °FLight rain. Fog.3 mph100%30.12 "Hg3 mi
6:00 AM48 °FLight rain. Mostly cloudy.1 mph100%30.09 "Hg4 mi
5:30 AM48 °FLight rain. Mostly cloudy.3 mph100%30.09 "Hg4 mi
5:00 AM48 °FSprinkles. Mostly cloudy.1 mph100%30.09 "Hg4 mi
4:30 AM48 °FSprinkles. Mostly cloudy.1 mph100%30.09 "Hg5 mi
4:00 AM48 °FSprinkles. Overcast.1 mph100%30.12 "Hg5 mi
Weather by CustomWeather, © 2015

See weather overviewHow to use our weather pages